Weather History for Punta Gorda, FL

Change the Weather History Date:

Wednesday, August 28, 2013

  Actual Average Record
Temperature  
Mean Temperature 80 °F -  
Max Temperature 88 °F 88 °F 93 °F (1997)
Min Temperature 73 °F 72 °F 70 °F (1997)
Cooling Degree Days 16    
Growing Degree Days 30 (Base 50)    
Moisture  
Dew Point 72 °F    
Average Humidity 84    
Maximum Humidity 97    
Minimum Humidity 55    
Precipitation  
Precipitation 0.39 in - - ()
Sea Level Pressure  
Sea Level Pressure 30.04 in    
Wind  
Wind Speed 5 mph (ENE)    
Max Wind Speed 9 mph    
Max Gust Speed -    
Visibility 9 miles    
Events Rain    
Averages and records for this station are not official NWS values.
T = Trace of Precipitation, MM = Missing Value Source: NWS Daily Summary

Daily Weather History Graph

Daily Weather History Graph

Search for Another Location

Airport:

Trip Planner

Search our weather history database for the weather conditions in past years. The results will help you decide how hot, cold, wet, or windy it might be!

Date:

Astronomy

Aug. 28, 2013 Rise Set
Actual Time 7:05 AM EDT 7:52 PM EDT
Civil Twilight 6:41 AM EDT 8:15 PM EDT
Nautical Twilight 6:14 AM EDT 8:43 PM EDT
Astronomical Twilight 5:45 AM EDT 9:12 PM EDT
Moon 12:26 AM EDT (8/28) 2:13 PM EDT (8/28)
Length of Visible Light 13h 33m
Length of Day
12h 46m
Waning Gibbous, 47% of the Moon is Illuminated
Aug 28
Waning Gibbous
Sep 5
New
Sep 12
First Quarter
Sep 19
Full
Sep 26
Last Quarter

Hourly Weather History & Observations

Time (EDT) Temp. Heat Index Dew Point Humidity Pressure Visibility Wind Dir Wind Speed Gust Speed Precip Events Conditions
12:53 AM 73.9 °F - 73.0 °F 97% 30.05 in 10.0 mi NE 5.8 mph - N/A   Clear
1:53 AM 73.9 °F - 72.0 °F 93% 30.03 in 10.0 mi Calm Calm - N/A   Clear
2:53 AM 73.9 °F - 72.0 °F 93% 30.02 in 10.0 mi East 8.1 mph - N/A   Clear
3:53 AM 73.0 °F - 72.0 °F 96% 30.01 in 10.0 mi NE 4.6 mph - N/A   Clear
4:53 AM 73.0 °F - 72.0 °F 96% 30.01 in 10.0 mi NE 3.5 mph - N/A   Clear
5:53 AM 73.0 °F - 71.1 °F 93% 30.01 in 10.0 mi ENE 4.6 mph - N/A   Clear
6:53 AM 73.0 °F - 71.1 °F 93% 30.03 in 10.0 mi ENE 5.8 mph - N/A   Clear
7:53 AM 73.9 °F - 72.0 °F 93% 30.04 in 10.0 mi NNE 3.5 mph - N/A   Mostly Cloudy
8:53 AM 78.1 °F - 73.0 °F 84% 30.05 in 10.0 mi NE 4.6 mph - N/A   Clear
9:53 AM 82.0 °F 87.4 °F 73.0 °F 74% 30.06 in 10.0 mi ESE 9.2 mph - N/A   Clear
10:53 AM 84.9 °F 90.7 °F 72.0 °F 65% 30.07 in 10.0 mi SE 5.8 mph - N/A   Clear
11:53 AM 84.9 °F 90.1 °F 71.1 °F 63% 30.07 in 10.0 mi ESE 4.6 mph - N/A   Partly Cloudy
12:53 PM 88.0 °F 92.9 °F 70.0 °F 55% 30.05 in 10.0 mi Calm Calm - N/A   Mostly Cloudy
1:44 PM 80.6 °F 84.6 °F 71.6 °F 74% 30.04 in 10.0 mi South 8.1 mph - N/A   Mostly Cloudy
1:53 PM 79.0 °F - 73.0 °F 82% 30.05 in 5.0 mi SE 8.1 mph - 0.02 in Rain Rain
2:20 PM 73.4 °F - 71.6 °F 94% 30.07 in 1.8 mi NE 6.9 mph - 0.15 in Rain Heavy Rain
2:42 PM 73.4 °F - 71.6 °F 94% 30.06 in 3.0 mi WSW 6.9 mph - 0.36 in Rain Rain
2:53 PM 75.0 °F - 73.0 °F 94% 30.04 in 10.0 mi West 8.1 mph - 0.37 in Rain Light Rain
3:53 PM 78.1 °F - 72.0 °F 81% 30.03 in 10.0 mi North 8.1 mph - 0.00 in   Overcast
4:53 PM 80.1 °F 83.8 °F 72.0 °F 76% 30.02 in 10.0 mi NE 8.1 mph - N/A   Scattered Clouds
5:53 PM 79.0 °F - 72.0 °F 79% 30.01 in 10.0 mi NE 6.9 mph - N/A   Mostly Cloudy
6:53 PM 79.0 °F - 72.0 °F 79% 30.02 in 10.0 mi East 8.1 mph - N/A   Overcast
7:53 PM 78.1 °F - 71.1 °F 79% 30.02 in 10.0 mi Calm Calm - N/A   Mostly Cloudy
8:53 PM 77.0 °F - 72.0 °F 84% 30.03 in 10.0 mi NNE 4.6 mph - N/A   Partly Cloudy
9:53 PM 75.9 °F - 72.0 °F 87% 30.06 in 10.0 mi Calm Calm - N/A   Scattered Clouds
10:53 PM 75.0 °F - 72.0 °F 90% 30.06 in 10.0 mi NNE 4.6 mph - N/A   Clear
11:53 PM 75.0 °F - 72.0 °F 90% 30.07 in 10.0 mi NE 3.5 mph - N/A   Clear